Regional Weather Roundup
Issued by NWS

Home | Current Version | Previous Version | Text Only | Print | Product List | Glossary Off
Versions: 1 2 3 4 5 6 7 8 9 10 11 12 13 14 15 16 17 18 19 20 21 22 23 24 25 26 27 28 29 30 31 32 33 34 35 36 37 38 39 40 41 42 43 44 45 46 47 48 49 50

000
ASUS43 KDTX 271101
RWRMI
MICHIGAN HOURLY REGIONAL WEATHER ROUNDUP
NATIONAL WEATHER SERVICE DETROIT/PONTIAC MI
700 AM EDT TUE JUN 27 2017

NOTE: "FAIR" INDICATES FEW OR NO CLOUDS BELOW 12,000 FEET WITH NO
SIGNIFICANT WEATHER AND/OR OBSTRUCTION TO VISIBILITY.

MIZ047>049-052>055-059>063-066>070-074>076-081>083-271200-
SOUTHEAST LOWER MICHIGAN

CITY           SKY/WX    TMP DP  RH WIND       PRES   REMARKS
ADRIAN         CLEAR     50  47  89 W3        30.08R
ALMA           CLEAR     50  48  95 W10       30.06R
ANN ARBOR      PTCLDY    50  48  93 W8        30.05R
BAD AXE        CLOUDY    53  48  82 W5        29.99R
CARO           CLOUDY    53  49  87 W7        30.00S
DETROIT CITY   PTCLDY    54  47  77 NW6       30.02S
DETROIT        PTCLDY    54  48  80 NW9       30.04R
FLINT          PTCLDY    52  48  86 W8        30.03R
GROSSE ILE     PTCLDY    53  48  83 NW7       30.03R
HILLSDALE      CLEAR     48  46  93 W6        30.07R
HOWELL         CLEAR     51  47  87 W7        30.04S

CITY           SKY/WX    TMP DP  RH WIND       PRES   REMARKS
JACKSON        CLEAR     50  47  89 W5        30.07R
LAMBERTVILLE   CLEAR     51  46  84 W3        30.06R
LANSING        CLEAR     52  46  80 W7        30.07R
LAPEER         CLOUDY    53  47  82 W8        30.02R
MASON          CLEAR     49  48  95 W6        30.06S
MONROE         CLEAR     51  48  87 W7        30.04R
MT. CLEMENS    PTCLDY    54  48  80 NW7       29.99R
PONTIAC        MOCLDY    51  48  89 W9        30.02R
PORT HOPE        N/A     55  48  77 NW13      29.96R
PORT HURON     CLOUDY    52  48  87 W5        30.00R
TRI CITIES     CLEAR     53  51  93 W12       30.03R
MIDLAND        FAIR      52  48  86 W5        30.03R
TROY           MOCLDY    53  46  75 W8        30.04R
SAGINAW HB     CLEAR     52  46  82 W12       30.02R
$$
MIZ043>046-050>051-056>058-064>065-071>073-077>080-271200-
SOUTHWEST LOWER MICHIGAN

CITY           SKY/WX    TMP DP  RH WIND       PRES   REMARKS
BATTLE CREEK   CLEAR     47  47 100 W3        30.09R
BENTON HARBOR  CLEAR     50  47  89 CALM      30.09S
BIG RAPIDS     PTCLDY    51  48  91 W3        30.05R
COLDWATER      CLEAR     49  48  97 W3        30.09R
FREMONT        FAIR      45  45 100 CALM      30.05S FOG
HOLLAND        CLEAR     49  47  93 CALM      30.09R
GRAND RAPIDS   PTCLDY    50  50 100 W6        30.07R
IONIA          FAIR      50  48  93 W6        30.07R
KALAMAZOO      CLEAR     50  46  86 CALM      30.10R
LUDINGTON      CLEAR     56  52  85 W5        30.04R
MARSHALL       CLEAR     47  46  98 W3        30.08R
MOUNT PLEASANT CLEAR     51  48  90 W6        30.03S
MUSKEGON       PTCLDY    52  48  86 W7        30.07R
SOUTH HAVEN    CLEAR     50  49  97 CALM      30.09S
$$
MIZ016>042-271200-
NORTHERN LOWER MICHIGAN

CITY           SKY/WX    TMP DP  RH WIND       PRES   REMARKS
ALPENA         SUNNY     51  49  92 VRB7      29.97R
BEAVER ISLAND  CLEAR     46  45  99 CALM      29.99S
BELLAIRE       CLOUDY    48  47  96 CALM      30.01S
CADILLAC       PTCLDY    49  49  97 W5        30.03R
CHARLEVOIX     CLEAR     50  50 100 W3        30.02S FOG
FRANKFORT      CLEAR     49  47  92 CALM      30.02R
GAYLORD        CLEAR     49  46  90 W7        30.00R
GRAYLING       FOG       47  47  98 W6        30.02R VSB 3/4
HARBOR SPRINGS CLEAR     52  51  95 NW6       29.99S
HOUGHTON LAKE  MOCLDY    51  49  92 NW9       30.02R
MANISTEE       CLEAR     43  43 100 E5        30.03S
OSCODA         CLEAR     50  48  91 W7        29.97R
PELLSTON       CLEAR     50  47  89 W6        29.99S
ROGERS CITY    SUNNY     51  48  89 W7        29.98R
TRAVERSE CITY  PTCLDY    52  50  93 CALM      30.00S
$$
MIZ007>008-015-271200-
EASTERN UPPER MICHIGAN

CITY           SKY/WX    TMP DP  RH WIND       PRES   REMARKS
KINROSS        CLEAR     42  42 100 W6        29.96S
MACKINAC ISLAN CLEAR     51  51 100 W8        29.98R
NEWBERRY       PTCLDY    46  46  97 W8        29.97R
S. S. MARIE    SUNNY     49  47  93 W3        29.94S
MUNISING         N/A     44  43  96 S5        29.98R
$$
MIZ004>006-011>014-085-271200-
CENTRAL UPPER MICHIGAN

CITY           SKY/WX    TMP DP  RH WIND       PRES   REMARKS
MANISTIQUE     CLEAR     42  39  89 CALM      29.98S
ESCANABA       CLOUDY    49  47  93 W6        30.00S
MENOMINEE      CLEAR     48  47  96 CALM      30.03S
SAWYER-GWINN   PTCLDY    46  45  93 W5        29.99S
$$
MIZ001>003-009>011-084-271200-
WESTERN UPPER MICHIGAN

CITY           SKY/WX    TMP DP  RH WIND       PRES   REMARKS
IRON MOUNTAIN  CLEAR     48  44  86 NW3       30.01S
HOUGHTON       CLEAR     50  45  83 NW10      29.99R
COPPER HARBOR    N/A     55  46  71 VRB6      29.97R
IRONWOOD       CLEAR     47  45  93 SW5       30.03S
$$

ABBREVIATIONS USED IN REMARKS
   TC - TEMPERATURE IN CELSIUS
  WCI - WIND CHILL INDEX
   HX - HEAT INDEX
  VSB - VISIBILITY




USA.gov is the U.S. government's official web portal to all federal, state and local government web resources and services.